{"data":{"norad_id":60725,"epoch":"2026-09-21T02:01:57.813888Z","epoch_age_seconds":137916,"freshness":"FRESH","line1":"1 60725U 24152F   26264.08469692 -.00000406  00000+0  15036-5 0  9998","line2":"2 60725  53.1554 233.0599 0000832  81.2315 278.8797 15.69711691119521","mean_motion":15.69711691,"eccentricity":8.32e-5,"inclination_deg":53.1554,"raan_deg":233.0599,"arg_perigee_deg":81.2315,"mean_anomaly_deg":278.8797,"bstar":1.5036e-6,"rev_number":11952,"period_min":91.736591391674,"perigee_km":359.16132156798,"apogee_km":360.28250129084,"semimajor_km":6737.8589114294,"source":"CELESTRAK","updated_at":"2026-09-22T09:00:49.277902Z"}}